Weather reports worldwide

Advertisment
Lanzarote Airport (AWS), Spain (60040): temperature & dewpoint: 04.12.2018 14:00:00 - 10.12.2018 14:00:00 (WET)Lanzarote Airport (AWS), Spain (60040): wind speed: 04.12.2018 14:00:00 - 10.12.2018 14:00:00 (WET)Lanzarote Airport (AWS), Spain (60040): wind direction: 04.12.2018 14:00:00 - 10.12.2018 14:00:00 (WET)Lanzarote Airport (AWS), Spain (60040): reduced air pressure: 04.12.2018 14:00:00 - 10.12.2018 14:00:00 (WET)Lanzarote Airport (AWS), Spain (60040): visibility: 04.12.2018 14:00:00 - 10.12.2018 14:00:00 (WET)
Date & Time tt [°C] td [°C] ff [km/h] ff [kn] dd ppp [hPa] vv [km]
10.12.2018 14:00:00 21,5 17,1 9 5 ESE 1024,2 -
10.12.2018 13:00:00 21,4 16,4 9 5 ESE 1025,1 -
10.12.2018 12:00:00 21,1 16,9 11 6 E 1026,0 17
10.12.2018 11:00:00 20,8 16,9 11 6 ESE 1026,7 -
10.12.2018 10:00:00 19,9 16,3 5 3 ENE 1026,4 -
10.12.2018 09:00:00 18,0 16,1 8 4 N 1025,8 20
10.12.2018 08:00:00 16,0 14,9 8 4 NNE 1025,5 -
10.12.2018 07:00:00 16,8 15,5 5 3 NE 1025,1 -
10.12.2018 06:00:00 16,9 15,9 8 4 NNE 1024,9 20
10.12.2018 05:00:00 16,0 15,5 11 6 N 1024,8 -
10.12.2018 04:00:00 13,7 13,1 8 4 N 1024,9 -
10.12.2018 03:00:00 14,5 13,9 11 6 N 1025,0 -
10.12.2018 02:00:00 15,1 14,3 11 6 N 1025,3 -
10.12.2018 01:00:00 13,8 12,9 13 7 N 1025,6 -
10.12.2018 00:00:00 13,5 11,5 2 1 NNW 1025,6 20
09.12.2018 23:00:00 14,3 10,0 0 0 N 1026,0 -
09.12.2018 22:00:00 14,2 10,2 5 3 NNW 1025,7 -
09.12.2018 21:00:00 15,7 13,3 0 0 N 1025,5 12
09.12.2018 20:00:00 17,2 14,7 0 0 N 1025,4 -
09.12.2018 19:00:00 18,5 16,1 5 3 NE 1025,0 -
09.12.2018 18:00:00 19,9 17,1 11 6 ENE 1024,5 12
09.12.2018 17:00:00 20,8 17,8 13 7 E 1024,1 -
09.12.2018 16:00:00 20,9 17,4 16 9 E 1024,0 -
09.12.2018 15:00:00 21,4 17,2 16 9 E 1024,1 12
09.12.2018 14:00:00 21,6 17,2 18 10 E 1024,3 -
09.12.2018 13:00:00 22,8 16,5 15 8 ENE 1025,0 -
09.12.2018 12:00:00 22,5 16,2 18 10 ENE 1025,7 15
09.12.2018 11:00:00 21,6 16,4 16 9 ENE 1026,1 -
09.12.2018 10:00:00 20,3 16,3 16 9 ENE 1025,9 -
09.12.2018 09:00:00 17,5 14,3 8 4 ENE 1025,5 25
09.12.2018 08:00:00 13,0 10,5 5 3 NE 1025,1 -
09.12.2018 07:00:00 13,2 10,6 9 5 NNE 1024,7 -
09.12.2018 06:00:00 12,3 11,0 4 2 NW 1024,4 15
09.12.2018 05:00:00 13,6 12,8 11 6 N 1024,5 -
09.12.2018 04:00:00 13,5 12,8 9 5 NNE 1024,6 -
09.12.2018 03:00:00 14,1 13,5 11 6 N 1024,5 -
09.12.2018 02:00:00 14,4 13,8 11 6 N 1024,8 -
09.12.2018 01:00:00 13,1 11,8 11 6 N 1025,0 -
09.12.2018 00:00:00 14,4 12,9 8 4 N 1025,3 15
08.12.2018 23:00:00 15,6 13,8 9 5 N 1025,5 -
08.12.2018 22:00:00 15,7 14,0 8 4 NNE 1025,5 -
08.12.2018 21:00:00 16,8 14,9 11 6 NNE 1025,2 12
08.12.2018 20:00:00 17,6 15,4 15 8 NNE 1024,8 -
08.12.2018 19:00:00 18,2 15,3 13 7 NNE 1024,6 -
08.12.2018 18:00:00 19,7 15,3 16 9 NNE 1024,0 20
08.12.2018 17:00:00 22,2 15,3 16 9 NNE 1023,8 -
08.12.2018 16:00:00 22,6 15,7 21 11 ENE 1023,6 -
08.12.2018 15:00:00 22,9 15,7 22 12 ENE 1023,7 15
08.12.2018 14:00:00 23,2 15,5 22 12 ENE 1024,4 -
08.12.2018 13:00:00 23,4 15,4 21 11 ENE 1025,0 -
08.12.2018 12:00:00 22,9 15,9 18 10 ENE 1025,9 15
08.12.2018 11:00:00 21,9 15,8 18 10 NE 1026,7 -
08.12.2018 10:00:00 20,8 15,8 24 13 NE 1026,5 -
08.12.2018 09:00:00 19,5 15,4 18 10 NE 1025,7 20
08.12.2018 08:00:00 17,6 15,1 15 8 NNE 1025,3 -
08.12.2018 07:00:00 17,7 15,9 15 8 NNE 1024,8 -
08.12.2018 06:00:00 17,7 15,9 13 7 NNE 1024,3 25
08.12.2018 05:00:00 18,0 15,6 13 7 NNE 1024,5 -
08.12.2018 04:00:00 17,5 15,5 13 7 NNE 1024,8 -
08.12.2018 03:00:00 16,7 15,2 13 7 NNE 1024,7 -
08.12.2018 02:00:00 16,6 15,0 11 6 N 1024,9 -
08.12.2018 01:00:00 16,7 15,2 11 6 N 1025,3 -
08.12.2018 00:00:00 17,6 15,5 13 7 NNE 1025,6 25
07.12.2018 23:00:00 18,1 15,7 16 9 NNE 1025,9 -
07.12.2018 22:00:00 18,3 15,7 18 10 NNE 1026,2 -
07.12.2018 21:00:00 17,9 15,7 21 11 NNE 1026,3 25
07.12.2018 20:00:00 17,6 15,4 11 6 N 1025,9 -
07.12.2018 19:00:00 18,3 15,9 15 8 N 1025,7 -
07.12.2018 18:00:00 19,4 15,9 18 10 N 1025,4 25
07.12.2018 17:00:00 21,0 15,9 26 14 N 1024,9 -
07.12.2018 16:00:00 23,3 15,9 24 13 N 1024,6 -
07.12.2018 15:00:00 23,5 16,5 18 10 NE 1024,4 12
07.12.2018 14:00:00 23,0 16,5 21 11 ENE 1024,8 -
07.12.2018 13:00:00 22,7 17,2 16 9 E 1025,6 -
07.12.2018 12:00:00 21,5 17,3 18 10 E 1026,3 15
07.12.2018 11:00:00 21,9 16,6 13 7 ENE 1026,7 -
07.12.2018 10:00:00 21,0 16,4 16 9 NE 1026,4 -
07.12.2018 09:00:00 19,4 16,2 15 8 NE 1025,7 25
07.12.2018 08:00:00 17,1 15,7 9 5 NNE 1025,3 -
07.12.2018 07:00:00 17,4 15,7 8 4 NE 1024,5 -
07.12.2018 06:00:00 17,8 15,8 13 7 NE 1023,9 25
07.12.2018 05:00:00 18,0 15,7 15 8 NE 1023,7 -
07.12.2018 04:00:00 18,3 15,0 18 10 NE 1023,8 -
07.12.2018 03:00:00 18,5 15,2 16 9 NE 1024,0 -
07.12.2018 02:00:00 19,4 7,5 5 3 NNE 1024,2 -
07.12.2018 01:00:00 20,5 7,8 22 12 N 1024,1 -
07.12.2018 00:00:00 20,4 7,0 21 11 N 1024,4 30
06.12.2018 23:00:00 20,5 6,4 16 9 N 1024,6 -
06.12.2018 22:00:00 21,1 7,0 18 10 NNE 1024,3 -
06.12.2018 21:00:00 20,6 5,0 16 9 N 1024,0 25
06.12.2018 20:00:00 20,4 4,5 18 10 N 1023,7 -
06.12.2018 19:00:00 20,7 5,5 16 9 NNE 1023,3 -
06.12.2018 18:00:00 22,2 6,4 13 7 NNE 1023,1 25
06.12.2018 17:00:00 24,6 3,9 15 8 NE 1022,8 -
06.12.2018 16:00:00 24,9 5,1 16 9 NE 1022,8 -
06.12.2018 15:00:00 25,3 4,4 16 9 ENE 1022,7 25
06.12.2018 14:00:00 25,2 4,6 18 10 ENE 1023,1 -
06.12.2018 13:00:00 24,8 7,9 16 9 NE 1024,0 -
06.12.2018 12:00:00 24,5 9,7 13 7 ENE 1024,7 25
06.12.2018 11:00:00 23,8 12,1 16 9 ENE 1024,8 -
06.12.2018 10:00:00 23,1 12,4 16 9 ENE 1024,5 -
06.12.2018 09:00:00 20,5 16,7 16 9 NE 1023,4 20
06.12.2018 08:00:00 18,7 15,9 21 11 NNE 1022,7 -
06.12.2018 07:00:00 18,3 15,7 15 8 NE 1022,2 -
06.12.2018 06:00:00 18,5 15,9 15 8 NE 1021,6 20
06.12.2018 05:00:00 18,1 15,7 13 7 NNE 1021,6 -
06.12.2018 04:00:00 18,2 16,3 13 7 NNE 1021,9 -
06.12.2018 03:00:00 18,8 16,0 15 8 NE 1021,7 -
06.12.2018 02:00:00 18,7 15,0 15 8 NE 1021,7 -
06.12.2018 01:00:00 19,2 14,0 11 6 NE 1021,7 -
06.12.2018 00:00:00 19,6 15,5 15 8 NE 1022,1 15
05.12.2018 23:00:00 20,1 13,1 16 9 NNE 1022,2 -
05.12.2018 22:00:00 20,0 14,6 21 11 NE 1021,9 -
05.12.2018 21:00:00 21,2 11,2 22 12 NE 1021,6 15
05.12.2018 20:00:00 20,6 7,9 15 8 NNE 1020,9 -
05.12.2018 19:00:00 21,0 10,2 15 8 NE 1020,5 -
05.12.2018 18:00:00 21,7 10,2 15 8 ENE 1019,9 20
05.12.2018 17:00:00 22,4 10,6 16 9 ENE 1019,5 -
05.12.2018 16:00:00 22,3 12,3 18 10 E 1019,4 25
05.12.2018 15:00:00 23,0 12,0 21 11 E 1019,4 25
05.12.2018 14:00:00 23,1 11,6 22 12 E 1019,6 -
05.12.2018 13:00:00 23,0 12,9 21 11 E 1020,4 -
05.12.2018 12:00:00 23,1 13,1 21 11 E 1021,1 30
05.12.2018 11:00:00 23,0 12,5 21 11 E 1021,6 -
05.12.2018 10:00:00 22,3 15,2 13 7 E 1021,2 -
05.12.2018 09:00:00 20,7 15,3 11 6 NE 1020,4 30
05.12.2018 08:00:00 17,4 13,3 15 8 NNE 1019,5 -
05.12.2018 07:00:00 16,6 15,3 15 8 N 1019,2 -
05.12.2018 06:00:00 16,4 15,0 13 7 N 1018,8 30
05.12.2018 05:00:00 16,8 15,1 15 8 N 1018,5 -
05.12.2018 04:00:00 17,6 15,1 13 7 NNE 1018,4 -
05.12.2018 03:00:00 18,0 15,4 15 8 N 1018,5 -
05.12.2018 02:00:00 18,6 15,8 13 7 NNE 1018,9 -
05.12.2018 01:00:00 19,9 12,2 15 8 NE 1019,2 -
05.12.2018 00:00:00 18,9 9,2 13 7 NNE 1019,2 20
04.12.2018 23:00:00 19,2 5,6 5 3 ENE 1019,1 -
04.12.2018 22:00:00 20,3 5,9 15 8 NNW 1018,7 -
04.12.2018 21:00:00 20,0 5,6 9 5 N 1018,6 15
04.12.2018 20:00:00 20,1 6,1 5 3 N 1018,2 -
04.12.2018 19:00:00 21,3 6,8 13 7 NNW 1017,8 -
04.12.2018 18:00:00 22,0 8,1 9 5 N 1017,5 25
04.12.2018 17:00:00 23,1 11,5 5 3 E 1017,4 -
04.12.2018 16:00:00 22,8 14,5 13 7 E 1017,4 -
04.12.2018 15:00:00 23,0 14,3 9 5 E 1017,6 30
04.12.2018 14:00:00 23,6 15,5 9 5 ESE 1018,2 -

tt = temperature
td = dewpoint
ff = wind speed
dd = wind direction
ppp = reduced air pressure
vv = visibility

Next stations